Location: Borowce
(50.8255°N, 19.6209°E)
Time: 22:54:17
(UTC+00:00)

GP-B - Pass Details

Date: 19 May 2025
Orbit: 619 x 623 km, 89.8° (Epoch: 16 June)

Event Time Altitude Azimuth Distance (km) Brightness Sun altitude
Rises 23:08:44 0° 356° (N) 2,917 8.0 -18.9°
Reaches altitude 10° 23:11:02 10° 349° (N) 2,004 6.8 -18.8°
Maximum altitude 23:15:11 42° 279° (W) 889 3.8 -18.7°
Enters shadow 23:16:39 31° 234° (SW) 1,089 3.9 -18.7°
